[[{"header":{"parameterUnit":"m.s-1","parameterCategory":1,"la1":30.2991,"la2":30.254,"lo1":-89.0895,"lo2":-89.0444,"dx":0.0017,"dy":0.0017,"nx":28,"ny":28,"refTime":"2022-11-19T09:00:00:Z","depth":0,"parameterNumber":2,"parameterNumberName":"U-component_of_WINDS"},"data":[0,0,0,0,0,0,0,0,0,0,0,0,0,0,0,0,0,0,0,0,0,0,0,0,0,0,0,0,0,0,0,0,0,0,0,0,0,0,0,0,0,0,0,0,0,0,0,0,0,0,0,0,0,0,0,0,0,0,-5.0006,-5.0007,0,-5.0086,-5.0087,-5.0088,-4.9919,-4.9914,-4.9908,-4.9903,-4.9987,-4.9994,-5.0002,0,0,0,0,0,0,0,0,0,0,0,0,0,-4.9707,-4.9713,-5.0006,-5.0007,-5.0008,-5.0086,-5.0087,-5.0088,-4.992,-4.9913,-4.9907,-4.99,-4.9985,-4.9994,-5.0002,0,0,0,0,0,0,0,0,0,0,0,0,0,-4.9817,-4.9716,-5.0006,-4.9933,-4.9928,-5.0086,-5.0087,-5.0089,-4.9922,-4.9913,-4.9905,-4.9897,-4.9982,-4.9993,-5.0004,-5.0236,0,0,-5.0037,-5.0042,0,0,0,0,0,0,0,0,-4.9811,-4.9828,-4.9943,-4.9939,-4.9933,-4.9984,-5.0012,-5.0138,-4.9924,-4.9924,-4.9903,-4.9893,-4.9993,-5.0003,-5.0036,-5.024,-5.0244,-5.0038,-5.0045,-5.005,-5.0053,0,0,0,0,0,0,0,-4.9804,-4.9824,-5.0038,-4.9945,-4.9939,-4.9897,-4.9903,-5.0036,-5.0004,-4.9923,-4.9911,-4.9923,-4.9989,-5.0026,-5.0037,-5.0245,-5.0038,-5.0048,-5.0055,-5.0059,-5.0643,-5.0651,0,0,0,0,0,0,-4.9805,-4.9819,-5.0035,-5.004,-4.985,-4.9909,-4.9916,-4.9976,-5.0002,-4.9998,-4.993,-4.9915,-5.0011,-5.0024,-5.0039,-5.0312,-5.005,-5.006,-5.0066,-5.0634,-5.0645,-5.0654,0,0,0,0,0,0,-4.9799,-4.9826,-5.0032,-4.9926,-4.9949,-4.9923,-4.9991,-4.9982,-5.0019,-5.0007,-5.0,-4.9974,-5.0005,-5.0023,-5.0188,-5.0313,-5.0065,-5.0075,-5.0623,-5.0637,-5.0649,-5.0862,0,0,0,0,0,0,-4.9792,-4.9825,-4.9914,-4.993,-4.9956,-5.0181,-4.9999,-4.9989,-5.0038,-5.0019,-5.0046,-5.0043,-5.0,-5.0172,-5.0199,-5.0323,-5.0084,-5.0612,-5.063,-5.0645,-5.0843,-5.0881,-5.0912,0,0,0,0,0,-4.9782,-4.9971,-4.9919,-4.9946,-5.0066,-5.0188,-5.0203,-5.0149,-5.0049,-5.0137,-5.0129,-5.0042,-5.0295,-5.0191,-5.0219,-5.0349,-5.0604,-5.0625,-5.0644,-5.0828,-5.0873,-5.0912,0,0,0,0,0,0,-4.9972,-4.9972,-4.9914,-5.0114,-5.0152,-5.0159,-5.0269,-5.0199,-5.0267,-5.0247,-5.0177,-5.0185,-5.0363,-5.0372,-5.0256,-5.0574,-5.0432,-5.0459,-5.0562,-5.0605,-5.0639,-5.0634,-5.0093,0,0,0,0,0,-5.0037,-5.0136,-5.0131,-5.0308,-5.033,-5.0297,-5.0348,-5.0303,-5.034,-5.0356,-5.0359,-5.0399,-5.0486,-5.0546,-5.0627,-5.0843,-5.0846,-5.0946,-5.0981,-5.1009,-5.1033,-5.1147,-5.1191,-5.072,-5.072,-5.0719,0,0,-5.0173,-5.0185,-5.0252,-5.0346,-5.037,-5.0475,-5.0312,-5.0429,-5.0506,-5.0373,-5.0529,-5.0533,-5.0572,-5.0764,-5.0848,-5.0777,-5.1164,-5.1035,-5.1058,-5.1066,-5.1172,-5.1217,-5.1257,-5.0734,-5.0731,-5.0729,0,0,-5.0473,-5.0493,-5.0642,-5.0669,-5.0707,-5.0683,-5.0719,-5.0737,-5.0734,-5.0889,-5.0791,-5.0881,-5.1034,-5.1066,-5.1102,-5.1412,-5.1334,-5.144,-5.1621,-5.1733,-5.177,-5.1802,-5.1913,-5.1953,-5.1464,-5.1465,-5.1465,0,-5.0638,-5.079,-5.0728,-5.0851,-5.0895,-5.0779,-5.0929,-5.0958,-5.1022,-5.1055,-5.0973,-5.1162,-5.118,-5.1377,-5.1452,-5.1486,-5.1524,-5.1438,-5.177,-5.1802,-5.1831,-5.1935,-5.1977,-5.1477,-5.1476,-5.1475,-5.1473,0,-5.099,-5.1098,-5.1213,-5.1276,-5.1332,-5.1469,-5.1427,-5.1492,-5.1441,-5.1426,-5.1584,-5.1602,-5.1683,-5.1726,-5.1679,-5.1916,-5.187,-5.1781,-5.1636,-5.189,-5.1986,-5.2026,-5.1496,-5.1491,-5.1487,-5.1484,0,0,-5.1415,-5.1439,-5.1482,-5.1508,-5.1541,-5.1623,-5.1754,-5.1832,-5.1889,-5.1936,-5.2043,-5.2174,-5.2091,-5.2132,-5.2087,-5.2185,-5.2429,-5.2083,-5.2082,-5.2146,-5.269,-5.2757,-5.2805,-5.2377,-5.2384,-5.239,-5.2686,0,-5.1712,-5.1936,-5.1882,-5.2104,-5.2202,-5.2092,-5.2205,-5.2238,-5.2227,-5.2308,-5.2295,-5.2389,-5.2272,-5.2296,-5.2389,-5.238,-5.2537,-5.2357,-5.2476,-5.2481,-5.247,-5.2855,-5.2927,-5.3206,-5.2724,-5.273,-5.2735,0,-5.2089,-5.2149,-5.2381,-5.2395,-5.2434,-5.2538,-5.2604,-5.2683,-5.2717,-5.2702,-5.2747,-5.2682,-5.281,-5.2664,-5.284,-5.2719,-5.2764,-5.2767,-5.2777,-5.2786,-5.2624,-5.2875,-5.3294,-5.3336,-5.2794,-5.2789,-5.2785,0,-5.2375,-5.2514,-5.2669,-5.2695,-5.2717,-5.2792,-5.2804,-5.2829,-5.2879,-5.2937,-5.2969,-5.3042,-5.3082,-5.314,-5.3096,-5.2994,-5.3279,-5.3129,-5.3269,-5.3271,-5.3335,-5.3332,-5.3768,-5.3365,-5.3364,-5.3363,-5.3362,0,-5.2713,-5.2859,-5.2798,-5.2894,-5.3054,-5.299,-5.315,-5.3149,-5.3173,-5.3266,-5.3176,-5.3266,-5.3202,-5.3286,-5.3253,-5.3403,-5.3422,-5.3413,-5.3402,-5.3421,-5.3423,-5.345,-5.343,-5.3374,-5.3372,-5.337,-5.3368,0,-5.3059,-5.3025,-5.3187,-5.3193,-5.3198,-5.3316,-5.3321,-5.341,-5.3391,-5.3511,-5.3535,-5.3506,-5.3601,-5.3562,-5.3663,-5.3639,-5.3832,-5.3796,-5.3821,-5.3811,-5.3954,-5.3941,-5.4423,-5.4482,-5.4042,-5.4046,-5.4049,0,-5.3277,-5.3387,-5.3404,-5.346,-5.3478,-5.357,-5.362,-5.3561,-5.3616,-5.3662,-5.3745,-5.3832,-5.3897,-5.4054,-5.4042,-5.4118,-5.4082,-5.4246,-5.4093,-5.4108,-5.4084,-5.4078,-5.4088,-5.4277,-5.4282,-5.4286,-5.4289,0,-5.3668,-5.3644,-5.372,-5.3789,-5.3851,-5.3903,-5.3947,-5.3998,-5.3941,-5.4008,-5.4103,-5.4154,-5.4255,-5.4342,-5.4409,-5.4421,-5.4347,-5.4337,-5.4374,-5.4394,-5.4404,-5.44,-5.3904,-5.4327,-5.4323,-5.432,-5.4318,-5.4317,-5.3956,-5.4047,-5.4074,-5.416,-5.4186,-5.4229,-5.4313,-5.4304,-5.4382,-5.4459,-5.4419,-5.453,-5.4558,-5.464,-5.4663,-5.4748,-5.4683,-5.4737,-5.475,-5.4764,-5.4782,-5.4391,-5.476,-5.4759,-5.4758,-5.4757,-5.4756,0,-5.4341,-5.4352,-5.4432,-5.4495,-5.4563,-5.4486,-5.453,-5.4592,-5.469,-5.4723,-5.4789,-5.4897,-5.498,-5.4975,-5.5051,-5.512,-5.5088,-5.5142,-5.5136,-5.514,-5.4836,-5.4796,-5.5167,-5.5167,-5.5167,-5.5167,-5.5166,-5.5166,-5.4549,-5.4699,-5.4679,-5.4841,-5.485,-5.4957,-5.4989,-5.5028,-5.5053,-5.5178,-5.5247,-5.5241,-5.5259,-5.5335,-5.5408,-5.5403,-5.5436,-5.5503,-5.5487,-5.5202,-5.5162,-5.5123,-5.5085,-5.5511,-5.5511,-5.5783,-5.5786,-5.5788]},{"header":{"parameterUnit":"m.s-1","parameterCategory":1,"la1":30.2991,"la2":30.254,"lo1":-89.0895,"lo2":-89.0444,"dx":0.0017,"dy":0.0017,"nx":28,"ny":28,"refTime":"2022-11-19T09:00:00:Z","depth":0,"parameterNumber":3,"parameterNumberName":"V-component_of_WINDS"},"data":[0,0,0,0,0,0,0,0,0,0,0,0,0,0,0,0,0,0,0,0,0,0,0,0,0,0,0,0,0,0,0,0,0,0,0,0,0,0,0,0,0,0,0,0,0,0,0,0,0,0,0,0,0,0,0,0,0,0,-4.3069,-4.307,0,-4.3137,-4.3138,-4.3139,-4.3099,-4.3097,-4.3095,-4.3094,-4.3161,-4.3164,-4.3167,0,0,0,0,0,0,0,0,0,0,0,0,0,-4.29,-4.2903,-4.3069,-4.307,-4.3071,-4.3137,-4.3138,-4.3139,-4.31,-4.3097,-4.3095,-4.3093,-4.3159,-4.3164,-4.3168,0,0,0,0,0,0,0,0,0,0,0,0,0,-4.2971,-4.2904,-4.3069,-4.3059,-4.3059,-4.3137,-4.3138,-4.3139,-4.31,-4.3097,-4.3094,-4.3092,-4.3158,-4.3163,-4.3168,-4.3259,0,0,-4.3185,-4.3187,0,0,0,0,0,0,0,0,-4.2967,-4.2977,-4.306,-4.306,-4.306,-4.3107,-4.3103,-4.3179,-4.3101,-4.3084,-4.3094,-4.309,-4.3145,-4.3151,-4.317,-4.3262,-4.3265,-4.3185,-4.3188,-4.3191,-4.3192,0,0,0,0,0,0,0,-4.2962,-4.2974,-4.3096,-4.3061,-4.3061,-4.305,-4.3057,-4.3117,-4.313,-4.3086,-4.3083,-4.3092,-4.3144,-4.3165,-4.3171,-4.3266,-4.3185,-4.319,-4.3193,-4.3195,-4.3432,-4.3434,0,0,0,0,0,0,-4.2958,-4.297,-4.3094,-4.3098,-4.3005,-4.3055,-4.3063,-4.3095,-4.3129,-4.3132,-4.3094,-4.309,-4.3157,-4.3165,-4.3173,-4.3279,-4.3191,-4.3196,-4.3199,-4.3428,-4.3432,-4.3436,0,0,0,0,0,0,-4.2955,-4.297,-4.3091,-4.3033,-4.3048,-4.3061,-4.3097,-4.3097,-4.3118,-4.3135,-4.3137,-4.3113,-4.3155,-4.3166,-4.3237,-4.3281,-4.3198,-4.3203,-4.3425,-4.343,-4.3434,-4.3493,0,0,0,0,0,0,-4.295,-4.2969,-4.3005,-4.3034,-4.3051,-4.3155,-4.31,-4.3101,-4.3128,-4.3123,-4.3154,-4.3156,-4.3154,-4.323,-4.3243,-4.3287,-4.3207,-4.3421,-4.3427,-4.3432,-4.3487,-4.3499,-4.3509,0,0,0,0,0,-4.2944,-4.3019,-4.3007,-4.3022,-4.3096,-4.3158,-4.3167,-4.3164,-4.3132,-4.3167,-4.3177,-4.3155,-4.3274,-4.3237,-4.3252,-4.3298,-4.3418,-4.3425,-4.3432,-4.3482,-4.3497,-4.3509,0,0,0,0,0,0,-4.2993,-4.3022,-4.301,-4.3096,-4.3125,-4.3151,-4.3196,-4.318,-4.3218,-4.3211,-4.3204,-4.3212,-4.3286,-4.3299,-4.3257,-4.3386,-4.3341,-4.3351,-4.3374,-4.3388,-4.3399,-4.3393,-4.3212,0,0,0,0,0,-4.3014,-4.3063,-4.3085,-4.3159,-4.3174,-4.3183,-4.3209,-4.3204,-4.3233,-4.3245,-4.3261,-4.3289,-4.3332,-4.3361,-4.3402,-4.3489,-4.3494,-4.3528,-4.3539,-4.3548,-4.3556,-4.36,-4.3615,-4.3458,-4.3458,-4.3458,0,0,-4.3058,-4.308,-4.3111,-4.317,-4.3191,-4.324,-4.3193,-4.3248,-4.3283,-4.3253,-4.3321,-4.3333,-4.3364,-4.3443,-4.3478,-4.3456,-4.3601,-4.3557,-4.3564,-4.3567,-4.3609,-4.3624,-4.3637,-4.3463,-4.3462,-4.3461,0,0,-4.3161,-4.3184,-4.3247,-4.3269,-4.3303,-4.3307,-4.3322,-4.3351,-4.3358,-4.3426,-4.3404,-4.3445,-4.3521,-4.3543,-4.3564,-4.3674,-4.3654,-4.3687,-4.3744,-4.3787,-4.38,-4.381,-4.3847,-4.3861,-4.3696,-4.3696,-4.3696,0,-4.3211,-4.3285,-4.3281,-4.3336,-4.3362,-4.3337,-4.3399,-4.3421,-4.3466,-4.3483,-4.3458,-4.3551,-4.357,-4.3652,-4.3678,-4.3697,-4.3712,-4.3683,-4.3799,-4.3809,-4.3819,-4.3854,-4.3868,-4.37,-4.3699,-4.3699,-4.3699,0,-4.3343,-4.3394,-4.3441,-4.3485,-4.3515,-4.3574,-4.3577,-4.3608,-4.36,-4.3606,-4.3674,-4.3696,-4.374,-4.3759,-4.3752,-4.384,-4.3824,-4.3799,-4.3754,-4.3838,-4.387,-4.3884,-4.3705,-4.3704,-4.3703,-4.3702,0,0,-4.348,-4.352,-4.3537,-4.3555,-4.3589,-4.3628,-4.3684,-4.3728,-4.3753,-4.3785,-4.383,-4.3894,-4.387,-4.3894,-4.3888,-4.3926,-4.4008,-4.3896,-4.3896,-4.3914,-4.4103,-4.412,-4.4136,-4.3996,-4.3998,-4.4,-4.41,0,-4.3584,-4.3684,-4.3681,-4.3772,-4.3818,-4.3794,-4.3843,-4.3868,-4.3875,-4.3913,-4.3921,-4.3965,-4.3931,-4.3945,-4.3982,-4.399,-4.4046,-4.3983,-4.4035,-4.4037,-4.4027,-4.4154,-4.4173,-4.4266,-4.4113,-4.4115,-4.4116,0,-4.372,-4.3755,-4.3852,-4.3876,-4.3895,-4.394,-4.3977,-4.4015,-4.4042,-4.4044,-4.407,-4.4058,-4.4112,-4.4066,-4.414,-4.4098,-4.4118,-4.4126,-4.4129,-4.4133,-4.4081,-4.4159,-4.4296,-4.4309,-4.4137,-4.4135,-4.4134,0,-4.3807,-4.3879,-4.3945,-4.3962,-4.3994,-4.4024,-4.4039,-4.4063,-4.4088,-4.4121,-4.4137,-4.4176,-4.4196,-4.4226,-4.4223,-4.419,-4.4297,-4.4251,-4.4298,-4.4298,-4.4321,-4.4319,-4.4461,-4.4337,-4.4337,-4.4337,-4.4337,0,-4.3923,-4.3982,-4.3985,-4.4025,-4.409,-4.4085,-4.4149,-4.4159,-4.4181,-4.4221,-4.4203,-4.4241,-4.4237,-4.4274,-4.4273,-4.4332,-4.4342,-4.4344,-4.4343,-4.4345,-4.4344,-4.4357,-4.435,-4.4341,-4.434,-4.4339,-4.4338,0,-4.4032,-4.4036,-4.4106,-4.413,-4.4137,-4.4183,-4.4202,-4.4239,-4.4244,-4.4296,-4.4308,-4.4315,-4.4358,-4.4359,-4.4409,-4.4407,-4.448,-4.4472,-4.4471,-4.4468,-4.4515,-4.4509,-4.4669,-4.4688,-4.4554,-4.4555,-4.4556,0,-4.4104,-4.4149,-4.4177,-4.4203,-4.4219,-4.4262,-4.4288,-4.4284,-4.4311,-4.4343,-4.4376,-4.4418,-4.4451,-4.4521,-4.4529,-4.4566,-4.4558,-4.4611,-4.4564,-4.4563,-4.4556,-4.4553,-4.4556,-4.462,-4.4622,-4.4623,-4.4624,0,-4.4233,-4.4232,-4.427,-4.4308,-4.4339,-4.4369,-4.4397,-4.4419,-4.4417,-4.4448,-4.4492,-4.4518,-4.4568,-4.4609,-4.4644,-4.4657,-4.464,-4.4639,-4.4651,-4.4653,-4.465,-4.465,-4.4494,-4.4635,-4.4634,-4.4633,-4.4633,-4.4632,-4.4324,-4.4362,-4.4387,-4.4429,-4.4449,-4.4474,-4.451,-4.4519,-4.4556,-4.4597,-4.4592,-4.464,-4.4663,-4.4709,-4.4725,-4.4761,-4.4743,-4.4761,-4.4766,-4.477,-4.4774,-4.4645,-4.4768,-4.4768,-4.4767,-4.4767,-4.4767,0,-4.4449,-4.4463,-4.4502,-4.4541,-4.4574,-4.4555,-4.4584,-4.4612,-4.4655,-4.4679,-4.4711,-4.476,-4.4799,-4.4811,-4.4848,-4.4874,-4.4867,-4.4884,-4.4881,-4.4884,-4.479,-4.4774,-4.4889,-4.4889,-4.4889,-4.4889,-4.4889,-4.4889,-4.4518,-4.458,-4.4582,-4.4652,-4.4666,-4.4714,-4.4731,-4.4754,-4.4772,-4.4828,-4.4861,-4.4868,-4.4886,-4.4924,-4.4957,-4.496,-4.4973,-4.4993,-4.4992,-4.4903,-4.4891,-4.4879,-4.4864,-4.4996,-4.4997,-4.5082,-4.5083,-4.5084]}]]